Weather History for Guymon, OK

Change the Weather History Date:

Wednesday, June 26, 2013

  Actual Average Record
Temperature  
Mean Temperature 81 °F 77 °F  
Max Temperature 102 °F 91 °F 113 °F (2011)
Min Temperature 60 °F 63 °F 55 °F (2003)
Degree Days  
Heating Degree Days 0 0  
Month to date heating degree days 0 6  
Since 1 June heating degree days 0 6  
Since 1 July heating degree days 4311 4455  
Cooling Degree Days 16 12  
Month to date cooling degree days 364 230  
Year to date cooling degree days 568 338  
Since 1 June cooling degree days 364 230  
Growing Degree Days 32 (Base 50)    
Moisture  
Dew Point 58 °F    
Average Humidity 52    
Maximum Humidity 84    
Minimum Humidity 20    
Precipitation  
Precipitation 0.00 in 0.09 in 0.55 in (2004)
Month to date precipitation 2.77 2.74  
Year to date precipitation 5.12 8.99  
Snow  
Snow 0.00 in - - ()
Month to date snowfall T  
Since 1 June snowfall T  
Since 1 July snowfall 22.3  
Snow Depth 0.00 in    
Sea Level Pressure  
Sea Level Pressure 29.73 in    
Wind  
Wind Speed 9 mph (ENE)    
Max Wind Speed 22 mph    
Max Gust Speed 26 mph    
Visibility 10 miles    
Events      
T = Trace of Precipitation, MM = Missing Value Source: NWS Daily Summary

Daily Weather History Graph

Daily Weather History Graph

Search for Another Location

Airport:

Trip Planner

Search our weather history database for the weather conditions in past years. The results will help you decide how hot, cold, wet, or windy it might be!

Date:

Astronomy

Jun. 26, 2013 Rise Set
Actual Time 6:29 AM CDT 9:08 PM CDT
Civil Twilight 5:58 AM CDT 9:39 PM CDT
Nautical Twilight 5:20 AM CDT 10:17 PM CDT
Astronomical Twilight 4:37 AM CDT 11:00 PM CDT
Moon 11:40 PM CDT (6/26) 10:16 AM CDT (6/26)
Length of Visible Light 15h 40m
Length of Day
14h 39m
Waning Gibbous, 85% of the Moon is Illuminated
Jun 26
Waning Gibbous
Jun 29
Last Quarter
Jul 8
New
Jul 15
First Quarter
Jul 22
Full

Hourly Weather History & Observations

Time (CDT) Temp. Heat Index Dew Point Humidity Pressure Visibility Wind Dir Wind Speed Gust Speed Precip Events Conditions
12:53 AM 81.0 °F - 51.1 °F 35% 29.63 in 10.0 mi ESE 5.8 mph - N/A   Clear
1:53 AM 70.0 °F - 52.0 °F 53% 29.65 in 10.0 mi Calm Calm - N/A   Clear
2:53 AM 69.1 °F - 55.0 °F 61% 29.64 in 10.0 mi Calm Calm - N/A   Clear
3:53 AM 63.0 °F - 57.0 °F 81% 29.65 in 10.0 mi Calm Calm - N/A   Clear
4:53 AM 64.0 °F - 57.9 °F 80% 29.65 in 10.0 mi NW 8.1 mph - N/A   Clear
5:53 AM 63.0 °F - 57.0 °F 81% 29.68 in 10.0 mi NW 8.1 mph - N/A   Clear
6:53 AM 61.0 °F - 55.9 °F 83% 29.73 in 10.0 mi Calm Calm - N/A   Clear
7:53 AM 66.9 °F - 60.1 °F 79% 29.74 in 10.0 mi North 5.8 mph - N/A   Clear
8:53 AM 73.9 °F - 63.0 °F 68% 29.75 in 10.0 mi North 9.2 mph - N/A   Clear
9:53 AM 82.0 °F 83.0 °F 62.1 °F 51% 29.75 in 10.0 mi North 12.7 mph - N/A   Clear
10:53 AM 88.0 °F 87.9 °F 61.0 °F 40% 29.76 in 10.0 mi NE 15.0 mph - N/A   Clear
11:53 AM 93.9 °F 94.8 °F 62.1 °F 35% 29.76 in 10.0 mi ENE 15.0 mph - N/A   Clear
12:53 PM 97.0 °F 96.5 °F 59.0 °F 28% 29.76 in 10.0 mi East 17.3 mph 26.5 mph N/A   Clear
1:53 PM 99.0 °F 97.3 °F 55.0 °F 23% 29.77 in 10.0 mi East 15.0 mph 23.0 mph N/A   Clear
2:53 PM 99.0 °F 98.1 °F 57.0 °F 25% 29.77 in 10.0 mi ESE 10.4 mph 23.0 mph N/A   Clear
3:53 PM 100.0 °F 98.8 °F 55.9 °F 23% 29.77 in 10.0 mi East 13.8 mph 23.0 mph N/A   Clear
4:53 PM 102.0 °F 99.7 °F 53.1 °F 19% 29.76 in 10.0 mi East 16.1 mph 23.0 mph N/A   Clear
5:53 PM 100.9 °F 99.6 °F 55.0 °F 22% 29.75 in 10.0 mi East 13.8 mph 20.7 mph N/A   Clear
6:53 PM 100.9 °F 100.0 °F 57.0 °F 23% 29.75 in 10.0 mi East 10.4 mph 19.6 mph N/A   Clear
7:53 PM 98.1 °F 98.6 °F 61.0 °F 29% 29.75 in 10.0 mi ENE 11.5 mph - N/A   Clear
8:53 PM 93.9 °F 95.2 °F 63.0 °F 36% 29.76 in 10.0 mi East 11.5 mph - N/A   Clear
9:53 PM 90.0 °F 90.6 °F 63.0 °F 40% 29.77 in 10.0 mi East 9.2 mph - N/A   Clear
10:53 PM 87.1 °F 88.3 °F 64.0 °F 46% 29.79 in 10.0 mi East 8.1 mph - N/A   Clear
11:53 PM 84.0 °F 84.9 °F 63.0 °F 49% 29.79 in 10.0 mi ESE 6.9 mph - N/A   Clear